Location: Domont
(49.0278°N, 2.3264°E)
Time: 21:03:34
(UTC+00:00)

Cosmos 1605 Rocket - Pass Details

Date: 16 October 2021
Orbit: 945 x 1006 km, 82.9° (Epoch: 06 December)

Event Time Altitude Azimuth Distance (km) Brightness Sun altitude
Rises 18:49:34 0° 171° (S) 3,644 6.8 -18.9°
Reaches altitude 10° 18:52:06 10° 166° (SSE) 2,710 6.1 -19.3°
Maximum altitude 18:58:07 53° 91° (E) 1,190 4.1 -20.3°
Drops below altitude 10° 19:04:15 10° 17° (NNE) 2,769 6.3 -21.3°
Sets 19:06:51 0° 13° (NNE) 3,729 7.0 -21.7°
